N757RR KLAX-KRDU

Flight info

Callsign N757RR
Flight time N/A
Altitude 46000
Route DOTSS2 CLEEE PKE HIDAT KA27O KA30Q KA33U FTI KA36Y MMB RZC Q36 BNA J46 VXV KPASS ALDAN4
Aircraft G650/M-SDFGIRWYZ/L

Departure

Time 2026-05-06 20:36
Airport Los Angeles International Airport (KLAX)

Arrival

Time N/A
Airport Raleigh-Durham International Airport (KRDU)
Time Latitude Longitude Altitude Speed Heading
2026-05-06 19:47 33.94335 -118.43175 100 ft 0 kts 263°
2026-05-06 20:18 33.94338 -118.43148 100 ft 3 kts 263°
2026-05-06 20:18 33.94341 -118.43119 100 ft 0 kts 263°
2026-05-06 20:22 33.94341 -118.43120 100 ft 0 kts 263°
2026-05-06 20:22 33.94342 -118.43130 100 ft 5 kts 287°
2026-05-06 20:23 33.94417 -118.43111 101 ft 13 kts 14°
2026-05-06 20:23 33.94507 -118.43114 103 ft 13 kts 358°
2026-05-06 20:23 33.94593 -118.43101 105 ft 10 kts 41°
2026-05-06 20:23 33.94607 -118.43020 105 ft 10 kts 86°
2026-05-06 20:24 33.94614 -118.42926 107 ft 11 kts 83°
2026-05-06 20:24 33.94624 -118.42819 109 ft 14 kts 83°
2026-05-06 20:24 33.94638 -118.42684 109 ft 18 kts 83°
2026-05-06 20:24 33.94654 -118.42526 112 ft 18 kts 83°
2026-05-06 20:25 33.94669 -118.42379 115 ft 15 kts 83°
2026-05-06 20:25 33.94681 -118.42263 116 ft 13 kts 83°
2026-05-06 20:25 33.94692 -118.42158 117 ft 12 kts 83°
2026-05-06 20:25 33.94702 -118.42056 119 ft 11 kts 83°
2026-05-06 20:26 33.94713 -118.41953 119 ft 14 kts 83°
2026-05-06 20:26 33.94727 -118.41826 119 ft 15 kts 83°
2026-05-06 20:26 33.94739 -118.41701 119 ft 15 kts 83°
2026-05-06 20:26 33.94754 -118.41553 120 ft 18 kts 83°
2026-05-06 20:27 33.94772 -118.41420 122 ft 14 kts 72°
2026-05-06 20:27 33.94792 -118.41320 122 ft 10 kts 82°
2026-05-06 20:27 33.94800 -118.41249 123 ft 7 kts 83°
2026-05-06 20:27 33.94801 -118.41239 123 ft 0 kts 83°
2026-05-06 20:31 33.94802 -118.41228 123 ft 6 kts 83°
2026-05-06 20:31 33.94812 -118.41135 123 ft 11 kts 83°
2026-05-06 20:31 33.94824 -118.41017 123 ft 17 kts 83°
2026-05-06 20:31 33.94838 -118.40877 123 ft 15 kts 83°
2026-05-06 20:32 33.94850 -118.40752 121 ft 14 kts 83°
2026-05-06 20:32 33.94861 -118.40640 119 ft 12 kts 82°
2026-05-06 20:32 33.94872 -118.40544 119 ft 11 kts 83°
2026-05-06 20:32 33.94883 -118.40441 118 ft 12 kts 83°
2026-05-06 20:33 33.94894 -118.40332 116 ft 13 kts 84°
2026-05-06 20:33 33.94904 -118.40225 116 ft 12 kts 84°
2026-05-06 20:33 33.94912 -118.40132 115 ft 10 kts 84°
2026-05-06 20:33 33.94935 -118.40074 114 ft 0 kts 27°
2026-05-06 20:34 33.94936 -118.40074 114 ft 0 kts 27°
2026-05-06 20:34 33.94936 -118.40073 114 ft 0 kts 26°
2026-05-06 20:35 33.94956 -118.40067 114 ft 10 kts
2026-05-06 20:35 33.95024 -118.40138 115 ft 12 kts 264°
2026-05-06 20:35 33.95002 -118.40335 116 ft 53 kts 263°
2026-05-06 20:35 33.94927 -118.41071 123 ft 123 kts 263°
2026-05-06 20:36 33.94799 -118.42325 289 ft 165 kts 263°
2026-05-06 20:36 33.94661 -118.43671 1056 ft 168 kts 263°
2026-05-06 20:36 33.94516 -118.45072 1860 ft 175 kts 263°
2026-05-06 20:36 33.94368 -118.46558 2627 ft 182 kts 264°
2026-05-06 20:37 33.94273 -118.47987 3298 ft 171 kts 266°
2026-05-06 20:37 33.94226 -118.49411 3974 ft 171 kts 269°
2026-05-06 20:37 33.94192 -118.50816 4637 ft 171 kts 266°
2026-05-06 20:37 33.94089 -118.52302 5024 ft 194 kts 265°
2026-05-06 20:38 33.93960 -118.54067 5045 ft 226 kts 265°
2026-05-06 20:38 33.93814 -118.56018 5013 ft 237 kts 265°
2026-05-06 20:38 33.93662 -118.58008 5005 ft 239 kts 265°
2026-05-06 20:38 33.93509 -118.59988 5001 ft 238 kts 265°
2026-05-06 20:39 33.93294 -118.62022 4996 ft 244 kts 252°
2026-05-06 20:39 33.92303 -118.63645 5034 ft 247 kts 213°
2026-05-06 20:39 33.90682 -118.64222 5032 ft 248 kts 179°
2026-05-06 20:39 33.88958 -118.64103 5008 ft 248 kts 176°
2026-05-06 20:40 33.87233 -118.63970 5001 ft 248 kts 176°
2026-05-06 20:40 33.85527 -118.63842 5199 ft 243 kts 177°
2026-05-06 20:40 33.83874 -118.63496 5883 ft 245 kts 154°
2026-05-06 20:40 33.82415 -118.62395 6612 ft 250 kts 146°
2026-05-06 20:41 33.80967 -118.61221 7291 ft 255 kts 146°
2026-05-06 20:41 33.79501 -118.60030 8018 ft 258 kts 146°
2026-05-06 20:41 33.78005 -118.58814 8750 ft 261 kts 146°
2026-05-06 20:41 33.76503 -118.57595 9475 ft 264 kts 146°
2026-05-06 20:42 33.74978 -118.56358 10204 ft 267 kts 146°
2026-05-06 20:42 33.73435 -118.55105 10933 ft 270 kts 146°
2026-05-06 20:42 33.71889 -118.53850 11656 ft 272 kts 146°
2026-05-06 20:42 33.70318 -118.52529 11994 ft 281 kts 138°
2026-05-06 20:43 33.69263 -118.50589 12044 ft 280 kts 111°
2026-05-06 20:43 33.68615 -118.48390 12085 ft 276 kts 109°
2026-05-06 20:43 33.67979 -118.46223 12853 ft 278 kts 109°
2026-05-06 20:43 33.67329 -118.44016 13608 ft 283 kts 109°
2026-05-06 20:44 33.66671 -118.41790 14361 ft 288 kts 110°
2026-05-06 20:44 33.66000 -118.39524 15115 ft 293 kts 110°
2026-05-06 20:44 33.65312 -118.37202 15865 ft 298 kts 110°
2026-05-06 20:44 33.64625 -118.34827 16568 ft 304 kts 104°
2026-05-06 20:45 33.64450 -118.32322 17296 ft 308 kts 90°
2026-05-06 20:45 33.64458 -118.29719 18010 ft 315 kts 90°
2026-05-06 20:45 33.64462 -118.27074 18720 ft 321 kts 90°
2026-05-06 20:45 33.64464 -118.24380 19430 ft 327 kts 90°
2026-05-06 20:46 33.64466 -118.21668 20131 ft 333 kts 90°
2026-05-06 20:46 33.64467 -118.18878 20840 ft 339 kts 90°
2026-05-06 20:46 33.64467 -118.16035 21551 ft 344 kts 90°
2026-05-06 20:46 33.64467 -118.13142 22262 ft 349 kts 90°
2026-05-06 20:47 33.64465 -118.10247 22964 ft 353 kts 90°
2026-05-06 20:47 33.64463 -118.07285 23672 ft 357 kts 90°
2026-05-06 20:47 33.64460 -118.04298 24376 ft 361 kts 90°
2026-05-06 20:47 33.64460 -118.03510 24560 ft 362 kts 90°
2026-05-06 20:48 33.64459 -118.02872 24735 ft 363 kts 90°
2026-05-06 20:48 33.64455 -117.99824 25431 ft 366 kts 90°
2026-05-06 20:48 33.64451 -117.96768 26082 ft 370 kts 90°
2026-05-06 20:48 33.64445 -117.93662 26737 ft 374 kts 90°
2026-05-06 20:49 33.64439 -117.90536 27369 ft 377 kts 90°
2026-05-06 20:49 33.64428 -117.87400 27966 ft 379 kts 88°
2026-05-06 20:49 33.64418 -117.84247 28577 ft 381 kts 87°
2026-05-06 20:49 33.64409 -117.81078 29202 ft 382 kts 86°
2026-05-06 20:50 33.64473 -117.77910 29846 ft 380 kts 81°
2026-05-06 20:50 33.64653 -117.74763 30502 ft 380 kts 81°
2026-05-06 20:50 33.64824 -117.71626 31150 ft 380 kts 81°
2026-05-06 20:50 33.64990 -117.68475 31801 ft 378 kts 81°
2026-05-06 20:51 33.65154 -117.65331 32383 ft 378 kts 81°
2026-05-06 20:51 33.65316 -117.62191 32951 ft 377 kts 80°
2026-05-06 20:51 33.65477 -117.59081 33518 ft 375 kts 80°
2026-05-06 20:51 33.65638 -117.55936 34098 ft 373 kts 80°
2026-05-06 20:52 33.65795 -117.52872 34687 ft 370 kts 80°
2026-05-06 20:52 33.65951 -117.49788 35278 ft 367 kts 80°
2026-05-06 20:52 33.66103 -117.46777 35879 ft 363 kts 80°
2026-05-06 20:52 33.66255 -117.43748 36465 ft 358 kts 80°
2026-05-06 20:53 33.66403 -117.40796 37001 ft 355 kts 80°
2026-05-06 20:53 33.66548 -117.37882 37528 ft 350 kts 80°
2026-05-06 20:53 33.66691 -117.34969 38089 ft 345 kts 81°
2026-05-06 20:53 33.66832 -117.32114 38561 ft 341 kts 80°
2026-05-06 20:54 33.66973 -117.29261 38890 ft 340 kts 80°
2026-05-06 20:54 33.67111 -117.26446 39256 ft 339 kts 80°
2026-05-06 20:54 33.67250 -117.23601 39619 ft 337 kts 81°
2026-05-06 20:54 33.67384 -117.20803 39944 ft 334 kts 81°
2026-05-06 20:55 33.67518 -117.18031 40209 ft 332 kts 81°
2026-05-06 20:55 33.67651 -117.15289 40431 ft 331 kts 81°
2026-05-06 20:55 33.67780 -117.12563 40677 ft 329 kts 81°
2026-05-06 20:55 33.67911 -117.09802 40918 ft 327 kts 81°
2026-05-06 20:56 33.68038 -117.07122 41155 ft 324 kts 81°
2026-05-06 20:56 33.68165 -117.04424 41280 ft 324 kts 81°
2026-05-06 20:56 33.68292 -117.01708 41342 ft 325 kts 81°
2026-05-06 20:57 33.68546 -116.96242 41532 ft 327 kts 81°
2026-05-06 20:57 33.68798 -116.90789 41712 ft 329 kts 81°
2026-05-06 20:57 33.68922 -116.88058 41814 ft 329 kts 82°
2026-05-06 20:58 33.69047 -116.85317 41857 ft 330 kts 82°
2026-05-06 20:58 33.69172 -116.82554 41965 ft 330 kts 82°
2026-05-06 20:58 33.69295 -116.79824 42073 ft 330 kts 82°
2026-05-06 20:59 33.69541 -116.74315 42146 ft 333 kts 82°
2026-05-06 20:59 33.69788 -116.68739 42232 ft 337 kts 82°
2026-05-06 21:00 33.70036 -116.63089 42317 ft 340 kts 83°
2026-05-06 21:00 33.70284 -116.57385 42423 ft 343 kts 83°
2026-05-06 21:01 33.70530 -116.51649 42495 ft 346 kts 82°
2026-05-06 21:01 33.70775 -116.45846 42607 ft 349 kts 83°
2026-05-06 21:02 33.71019 -116.40035 42713 ft 352 kts 83°
2026-05-06 21:02 33.71264 -116.34118 42867 ft 353 kts 84°
2026-05-06 21:03 33.71504 -116.28282 43039 ft 352 kts 84°
2026-05-06 21:03 33.71623 -116.25358 43146 ft 351 kts 84°
2026-05-06 21:03 33.71739 -116.22443 43242 ft 350 kts 84°
2026-05-06 21:04 33.71973 -116.16617 43430 ft 347 kts 84°
2026-05-06 21:04 33.72199 -116.10895 43605 ft 344 kts 85°
2026-05-06 21:05 33.72887 -116.05321 43731 ft 333 kts 68°
2026-05-06 21:05 33.74366 -116.00066 43733 ft 333 kts 69°
2026-05-06 21:06 33.75886 -115.94610 42603 ft 369 kts 69°
2026-05-06 21:06 33.76700 -115.91673 42461 ft 377 kts 69°
2026-05-06 21:06 33.77554 -115.88596 42028 ft 394 kts 69°
2026-05-06 21:06 33.78440 -115.85398 41601 ft 411 kts 69°
2026-05-06 21:07 33.79359 -115.82076 41206 ft 428 kts 69°
2026-05-06 21:07 33.81244 -115.75248 41116 ft 440 kts 69°
2026-05-06 21:08 33.83186 -115.68195 41091 ft 450 kts 69°
2026-05-06 21:08 33.85170 -115.60973 41063 ft 459 kts 69°
2026-05-06 21:09 33.87179 -115.53641 41043 ft 468 kts 69°
2026-05-06 21:09 33.89230 -115.46138 41048 ft 476 kts 69°
2026-05-06 21:10 33.91301 -115.38537 41022 ft 482 kts 69°
2026-05-06 21:10 33.93386 -115.30866 40999 ft 486 kts 69°
2026-05-06 21:11 33.95480 -115.23144 40994 ft 489 kts 70°
2026-05-06 21:11 33.97582 -115.15363 40997 ft 490 kts 70°
2026-05-06 21:12 33.99681 -115.07575 41008 ft 491 kts 70°
2026-05-06 21:12 34.01783 -114.99754 41002 ft 492 kts 70°
2026-05-06 21:13 34.03876 -114.91945 40986 ft 493 kts 70°
2026-05-06 21:13 34.05980 -114.84074 41015 ft 494 kts 70°
2026-05-06 21:14 34.08073 -114.76218 41003 ft 495 kts 70°
2026-05-06 21:14 34.10184 -114.68282 40986 ft 496 kts 70°
2026-05-06 21:15 34.12382 -114.60448 41003 ft 497 kts 69°
2026-05-06 21:15 34.14592 -114.52561 41006 ft 498 kts 69°
2026-05-06 21:16 34.16798 -114.44664 41004 ft 499 kts 69°
2026-05-06 21:16 34.19006 -114.36736 40999 ft 501 kts 69°
2026-05-06 21:17 34.21220 -114.28765 40998 ft 501 kts 70°
2026-05-06 21:17 34.23434 -114.20775 41001 ft 502 kts 70°
2026-05-06 21:18 34.25629 -114.12827 41553 ft 493 kts 70°
2026-05-06 21:18 34.26706 -114.08923 41988 ft 488 kts 70°
2026-05-06 21:18 34.27781 -114.05012 41964 ft 492 kts 70°
2026-05-06 21:19 34.29940 -113.97158 42012 ft 498 kts 70°
2026-05-06 21:19 34.32123 -113.89184 42018 ft 501 kts 70°
2026-05-06 21:20 34.34309 -113.81177 42029 ft 504 kts 70°
2026-05-06 21:20 34.36485 -113.73190 42816 ft 492 kts 70°
2026-05-06 21:20 34.37544 -113.69292 43049 ft 491 kts 70°
2026-05-06 21:21 34.38606 -113.65372 43068 ft 494 kts 70°
2026-05-06 21:21 34.40750 -113.57458 43075 ft 499 kts 70°
2026-05-06 21:22 34.42908 -113.49463 43096 ft 503 kts 70°
2026-05-06 21:22 34.45082 -113.41383 43102 ft 507 kts 70°
2026-05-06 21:23 34.47263 -113.33260 43106 ft 510 kts 71°
2026-05-06 21:23 34.49447 -113.25093 43116 ft 512 kts 71°
2026-05-06 21:24 34.51636 -113.16890 43111 ft 514 kts 71°
2026-05-06 21:24 34.53827 -113.08648 43109 ft 515 kts 71°
2026-05-06 21:25 34.56006 -113.00382 43121 ft 516 kts 74°
2026-05-06 21:25 34.56441 -112.96121 43175 ft 513 kts 91°
2026-05-06 21:25 34.56247 -112.91782 43133 ft 517 kts 94°
2026-05-06 21:26 34.55706 -112.83106 43138 ft 518 kts 94°
2026-05-06 21:26 34.55141 -112.74470 43159 ft 520 kts 94°
2026-05-06 21:27 34.54563 -112.65751 43159 ft 521 kts 94°
2026-05-06 21:27 34.53976 -112.56988 43166 ft 523 kts 94°
2026-05-06 21:28 34.53381 -112.48217 43173 ft 523 kts 94°
2026-05-06 21:28 34.52779 -112.39432 43167 ft 524 kts 95°
2026-05-06 21:29 34.52170 -112.30634 43153 ft 525 kts 95°
2026-05-06 21:29 34.51555 -112.21851 43146 ft 526 kts 95°
2026-05-06 21:30 34.50932 -112.13028 43148 ft 527 kts 95°
2026-05-06 21:30 34.50302 -112.04204 43137 ft 527 kts 96°
2026-05-06 21:30 34.50286 -111.99804 43121 ft 525 kts 80°
2026-05-06 21:31 34.51178 -111.95513 43196 ft 524 kts 72°
2026-05-06 21:31 34.53343 -111.87115 43130 ft 527 kts 72°
2026-05-06 21:32 34.55534 -111.78627 43127 ft 528 kts 72°
2026-05-06 21:32 34.58808 -111.65884 43150 ft 530 kts 72°
2026-05-06 21:33 34.60990 -111.57360 43172 ft 531 kts 72°
2026-05-06 21:33 34.63171 -111.48814 43179 ft 531 kts 72°
2026-05-06 21:34 34.65334 -111.40311 43192 ft 532 kts 72°
2026-05-06 21:34 34.67513 -111.31712 43187 ft 533 kts 73°
2026-05-06 21:35 34.69682 -111.23128 43177 ft 534 kts 73°
2026-05-06 21:35 34.70752 -111.18874 43611 ft 525 kts 73°
2026-05-06 21:35 34.71812 -111.14670 44075 ft 518 kts 73°
2026-05-06 21:36 34.73913 -111.06297 44183 ft 523 kts 72°
2026-05-06 21:36 34.76035 -110.97810 44171 ft 530 kts 73°
2026-05-06 21:37 34.78202 -110.89128 44154 ft 535 kts 73°
2026-05-06 21:37 34.80352 -110.80469 44156 ft 539 kts 73°
2026-05-06 21:38 34.82493 -110.71828 44780 ft 528 kts 73°
2026-05-06 21:38 34.83542 -110.67582 45151 ft 523 kts 73°
2026-05-06 21:38 34.84594 -110.63319 45112 ft 527 kts 73°
2026-05-06 21:39 34.86697 -110.54763 45132 ft 529 kts 73°
2026-05-06 21:39 34.88798 -110.46197 45163 ft 529 kts 73°
2026-05-06 21:40 34.90899 -110.37601 45152 ft 531 kts 73°
2026-05-06 21:40 34.92996 -110.28988 45153 ft 532 kts 73°
2026-05-06 21:41 34.95080 -110.20405 45156 ft 532 kts 73°
2026-05-06 21:41 34.97176 -110.11736 45144 ft 533 kts 73°
2026-05-06 21:42 34.99249 -110.03140 45141 ft 533 kts 73°
2026-05-06 21:42 35.00799 -109.94334 45152 ft 532 kts 80°
2026-05-06 21:43 35.02064 -109.85447 45142 ft 533 kts 80°
2026-05-06 21:43 35.03321 -109.76509 45149 ft 534 kts 80°
2026-05-06 21:44 35.04563 -109.67627 45160 ft 535 kts 80°
2026-05-06 21:44 35.05813 -109.58635 45167 ft 536 kts 80°
2026-05-06 21:45 35.07051 -109.49693 45170 ft 537 kts 81°
2026-05-06 21:45 35.08283 -109.40730 45168 ft 538 kts 81°
2026-05-06 21:46 35.09512 -109.31741 45161 ft 538 kts 81°
2026-05-06 21:46 35.10732 -109.22763 45165 ft 538 kts 82°
2026-05-06 21:47 35.11952 -109.13743 45160 ft 538 kts 81°
2026-05-06 21:47 35.13158 -109.04779 45160 ft 538 kts 81°
2026-05-06 21:48 35.14361 -108.95766 45139 ft 538 kts 81°
2026-05-06 21:48 35.15562 -108.86732 45156 ft 539 kts 82°
2026-05-06 21:49 35.16751 -108.77729 45174 ft 539 kts 81°
2026-05-06 21:49 35.17942 -108.68651 45185 ft 540 kts 81°
2026-05-06 21:50 35.19119 -108.59634 45198 ft 541 kts 81°
2026-05-06 21:50 35.20295 -108.50562 45201 ft 541 kts 81°
2026-05-06 21:51 35.21466 -108.41489 45192 ft 542 kts 81°
2026-05-06 21:51 35.22633 -108.32393 45182 ft 542 kts 82°
2026-05-06 21:52 35.23790 -108.23298 45186 ft 543 kts 82°
2026-05-06 21:52 35.24937 -108.14226 45179 ft 543 kts 82°
2026-05-06 21:53 35.26087 -108.05095 45171 ft 544 kts 82°
2026-05-06 21:53 35.27227 -107.95975 45170 ft 544 kts 82°
2026-05-06 21:54 35.28359 -107.86870 45174 ft 545 kts 82°
2026-05-06 21:54 35.29486 -107.77735 45162 ft 546 kts 82°
2026-05-06 21:55 35.30614 -107.68553 45160 ft 547 kts 82°
2026-05-06 21:55 35.31736 -107.59343 45158 ft 548 kts 82°
2026-05-06 21:56 35.32844 -107.50183 45152 ft 549 kts 82°
2026-05-06 21:56 35.33953 -107.40968 45147 ft 550 kts 82°
2026-05-06 21:57 35.35056 -107.31712 45131 ft 550 kts 83°
2026-05-06 21:57 35.36165 -107.22408 45131 ft 550 kts 82°
2026-05-06 21:58 35.37252 -107.13172 45125 ft 551 kts 83°
2026-05-06 21:58 35.38334 -107.03913 45108 ft 552 kts 83°
2026-05-06 21:59 35.39417 -106.94629 45108 ft 552 kts 82°
2026-05-06 21:59 35.40491 -106.85323 45097 ft 553 kts 82°
2026-05-06 22:00 35.41561 -106.76000 45101 ft 553 kts 83°
2026-05-06 22:00 35.42625 -106.66670 45107 ft 554 kts 83°
2026-05-06 22:01 35.43677 -106.57351 45106 ft 555 kts 83°
2026-05-06 22:01 35.44726 -106.48009 45109 ft 555 kts 83°
2026-05-06 22:02 35.45763 -106.38713 45104 ft 555 kts 83°
2026-05-06 22:02 35.46804 -106.29318 45084 ft 555 kts 83°
2026-05-06 22:03 35.47835 -106.19943 45076 ft 555 kts 84°
2026-05-06 22:03 35.48854 -106.10590 45070 ft 555 kts 84°
2026-05-06 22:04 35.49864 -106.01280 45074 ft 554 kts 83°
2026-05-06 22:04 35.51464 -105.92062 45064 ft 555 kts 78°
2026-05-06 22:05 35.53182 -105.82845 45075 ft 555 kts 78°
2026-05-06 22:05 35.54881 -105.73640 45093 ft 555 kts 78°
2026-05-06 22:06 35.56575 -105.64399 45102 ft 556 kts 78°
2026-05-06 22:06 35.58263 -105.55138 45128 ft 557 kts 78°
2026-05-06 22:07 35.59949 -105.45873 45131 ft 559 kts 78°
2026-05-06 22:07 35.61631 -105.36569 45104 ft 561 kts 78°
2026-05-06 22:08 35.63317 -105.27200 45075 ft 562 kts 79°
2026-05-06 22:08 35.64996 -105.17834 45095 ft 562 kts 79°
2026-05-06 22:09 35.66409 -105.08426 45111 ft 559 kts 84°
2026-05-06 22:09 35.67540 -104.98953 45084 ft 562 kts 83°
2026-05-06 22:10 35.68685 -104.89485 45078 ft 563 kts 82°
2026-05-06 22:10 35.69838 -104.79928 45090 ft 565 kts 83°
2026-05-06 22:11 35.70974 -104.70393 45085 ft 566 kts 82°
2026-05-06 22:11 35.72105 -104.60846 45094 ft 567 kts 83°
2026-05-06 22:12 35.73231 -104.51287 45080 ft 567 kts 82°
2026-05-06 22:12 35.74357 -104.41650 45080 ft 568 kts 82°
2026-05-06 22:13 35.75471 -104.32050 45078 ft 568 kts 84°
2026-05-06 22:13 35.76582 -104.22430 45066 ft 568 kts 83°
2026-05-06 22:14 35.77676 -104.12852 45064 ft 569 kts 83°
2026-05-06 22:14 35.78769 -104.03234 45076 ft 569 kts 83°
2026-05-06 22:15 35.79857 -103.93600 45075 ft 569 kts 83°
2026-05-06 22:15 35.80940 -103.83923 45068 ft 570 kts 83°
2026-05-06 22:16 35.82008 -103.74303 45075 ft 570 kts 83°
2026-05-06 22:16 35.83073 -103.64661 45091 ft 571 kts 83°
2026-05-06 22:17 35.84130 -103.54992 45063 ft 572 kts 83°
2026-05-06 22:17 35.85186 -103.45268 45080 ft 572 kts 83°
2026-05-06 22:18 35.86226 -103.35607 45080 ft 573 kts 83°
2026-05-06 22:18 35.87275 -103.25808 45079 ft 574 kts 84°
2026-05-06 22:19 35.88307 -103.16080 45055 ft 574 kts 84°
2026-05-06 22:19 35.89333 -103.06345 45070 ft 574 kts 84°
2026-05-06 22:20 35.90349 -102.96602 45066 ft 575 kts 84°
2026-05-06 22:20 35.91357 -102.86883 45073 ft 575 kts 83°
2026-05-06 22:21 35.92361 -102.77131 45095 ft 576 kts 84°
2026-05-06 22:21 35.93364 -102.67299 45097 ft 577 kts 84°
2026-05-06 22:22 35.94352 -102.57518 45101 ft 577 kts 84°
2026-05-06 22:22 35.95330 -102.47747 45108 ft 577 kts 84°
2026-05-06 22:23 35.96304 -102.37957 45110 ft 578 kts 84°
2026-05-06 22:23 35.97279 -102.28082 45100 ft 579 kts 85°
2026-05-06 22:24 35.98242 -102.18226 45103 ft 579 kts 85°
2026-05-06 22:24 35.99198 -102.08366 45102 ft 580 kts 85°
2026-05-06 22:25 36.00170 -101.98560 45108 ft 580 kts 80°
2026-05-06 22:25 36.01906 -101.88827 45099 ft 581 kts 78°
2026-05-06 22:26 36.03579 -101.79057 45114 ft 582 kts 78°
2026-05-06 22:26 36.05229 -101.69314 45121 ft 583 kts 78°
2026-05-06 22:27 36.06873 -101.59550 45111 ft 584 kts 78°
2026-05-06 22:27 36.08516 -101.49757 45118 ft 584 kts 79°
2026-05-06 22:28 36.10159 -101.39901 45121 ft 585 kts 79°
2026-05-06 22:28 36.11791 -101.30064 45102 ft 585 kts 80°
2026-05-06 22:29 36.13413 -101.20222 45093 ft 585 kts 79°
2026-05-06 22:29 36.15033 -101.10349 45090 ft 584 kts 80°
2026-05-06 22:30 36.16633 -101.00536 45097 ft 584 kts 79°
2026-05-06 22:30 36.18228 -100.90713 45107 ft 584 kts 79°
2026-05-06 22:31 36.19808 -100.80926 45118 ft 584 kts 79°
2026-05-06 22:31 36.21390 -100.71059 45118 ft 584 kts 79°
2026-05-06 22:32 36.22961 -100.61224 45109 ft 586 kts 79°
2026-05-06 22:32 36.24530 -100.51347 45111 ft 587 kts 80°
2026-05-06 22:33 36.26090 -100.41469 45105 ft 588 kts 79°
2026-05-06 22:33 36.27653 -100.31513 45095 ft 589 kts 80°
2026-05-06 22:34 36.29205 -100.21565 45104 ft 589 kts 80°
2026-05-06 22:34 36.30747 -100.11625 45113 ft 589 kts 80°
2026-05-06 22:35 36.32283 -100.01668 45111 ft 589 kts 80°
2026-05-06 22:35 36.33808 -99.91729 45109 ft 590 kts 80°
2026-05-06 22:36 36.34319 -99.86718 45115 ft 586 kts 92°
2026-05-06 22:36 36.34385 -99.81684 45136 ft 586 kts 91°
2026-05-06 22:36 36.34478 -99.71616 45132 ft 587 kts 92°
2026-05-06 22:37 36.34534 -99.61490 45144 ft 589 kts 92°
2026-05-06 22:37 36.34578 -99.51375 45148 ft 590 kts 92°
2026-05-06 22:38 36.34616 -99.41215 45144 ft 591 kts 92°
2026-05-06 22:38 36.34644 -99.31046 45098 ft 592 kts 93°
2026-05-06 22:39 36.34664 -99.20819 45090 ft 592 kts 93°
2026-05-06 22:39 36.34674 -99.10655 45094 ft 592 kts 93°
2026-05-06 22:40 36.34676 -99.00474 45132 ft 593 kts 93°
2026-05-06 22:40 36.34671 -98.90281 45102 ft 594 kts 93°
2026-05-06 22:41 36.34645 -98.74955 45082 ft 595 kts 93°
2026-05-06 22:42 36.34616 -98.64691 45085 ft 596 kts 93°
2026-05-06 22:42 36.34579 -98.54440 45124 ft 597 kts 92°
2026-05-06 22:43 36.34533 -98.44178 45093 ft 598 kts 93°
2026-05-06 22:43 36.34480 -98.33906 45103 ft 598 kts 94°
2026-05-06 22:44 36.34415 -98.23609 45122 ft 597 kts 94°
2026-05-06 22:44 36.34343 -98.13370 45114 ft 597 kts 94°
2026-05-06 22:45 36.34263 -98.03069 45095 ft 597 kts 94°
2026-05-06 22:45 36.34173 -97.92767 45115 ft 597 kts 94°
2026-05-06 22:46 36.34074 -97.82523 45112 ft 598 kts 94°
2026-05-06 22:46 36.33966 -97.72207 45092 ft 599 kts 94°
2026-05-06 22:47 36.33850 -97.61901 45065 ft 599 kts 94°
2026-05-06 22:47 36.33726 -97.51620 45078 ft 600 kts 94°
2026-05-06 22:48 36.33590 -97.41299 45113 ft 600 kts 94°
2026-05-06 22:48 36.33521 -97.36195 45298 ft 593 kts 94°
2026-05-06 22:48 36.33450 -97.31093 45046 ft 585 kts 95°
2026-05-06 22:49 36.33301 -97.21074 45033 ft 582 kts 95°
2026-05-06 22:49 36.33144 -97.10947 45120 ft 587 kts 95°
2026-05-06 22:50 36.32978 -97.00839 45101 ft 591 kts 95°
2026-05-06 22:50 36.32802 -96.90672 45086 ft 595 kts 95°
2026-05-06 22:51 36.32617 -96.80389 45089 ft 598 kts 95°
2026-05-06 22:51 36.32420 -96.70052 45115 ft 600 kts 95°
2026-05-06 22:52 36.32217 -96.59772 45120 ft 601 kts 95°
2026-05-06 22:52 36.32001 -96.49411 45091 ft 603 kts 95°
2026-05-06 22:53 36.31778 -96.39050 45091 ft 604 kts 94°
2026-05-06 22:53 36.31547 -96.28688 45074 ft 604 kts 95°
2026-05-06 22:54 36.31307 -96.18355 45101 ft 604 kts 96°
2026-05-06 22:54 36.31056 -96.07976 45091 ft 604 kts 95°
2026-05-06 22:55 36.30796 -95.97572 45100 ft 604 kts 96°
2026-05-06 22:55 36.30528 -95.87193 45085 ft 604 kts 95°
2026-05-06 22:56 36.30248 -95.76804 45075 ft 605 kts 95°
2026-05-06 22:56 36.29964 -95.66440 45063 ft 606 kts 96°
2026-05-06 22:57 36.29667 -95.56042 45075 ft 606 kts 96°
2026-05-06 22:57 36.29359 -95.45576 45078 ft 607 kts 95°
2026-05-06 22:58 36.29045 -95.35203 45089 ft 607 kts 95°
2026-05-06 22:58 36.28721 -95.24731 45057 ft 606 kts 96°
2026-05-06 22:59 36.28389 -95.14301 45065 ft 606 kts 96°
2026-05-06 22:59 36.28046 -95.03845 45068 ft 606 kts 97°
2026-05-06 23:00 36.27694 -94.93411 45063 ft 606 kts 97°
2026-05-06 23:00 36.27334 -94.83001 45062 ft 606 kts 96°
2026-05-06 23:01 36.26961 -94.72566 45074 ft 607 kts 96°
2026-05-06 23:01 36.26582 -94.62105 45072 ft 606 kts 96°
2026-05-06 23:02 36.26196 -94.51706 45059 ft 607 kts 96°
2026-05-06 23:02 36.25802 -94.41308 45068 ft 607 kts 96°
2026-05-06 23:03 36.25394 -94.30852 45047 ft 607 kts 97°
2026-05-06 23:03 36.24978 -94.20424 45040 ft 606 kts 97°
2026-05-06 23:04 36.24590 -94.10000 45042 ft 606 kts 95°
2026-05-06 23:04 36.24396 -93.99605 45045 ft 606 kts 96°
2026-05-06 23:05 36.24180 -93.89174 45043 ft 607 kts 95°
2026-05-06 23:05 36.23959 -93.78794 45050 ft 607 kts 95°
2026-05-06 23:06 36.23725 -93.68311 45063 ft 607 kts 95°
2026-05-06 23:06 36.23485 -93.57888 45036 ft 608 kts 95°
2026-05-06 23:07 36.23234 -93.47506 45036 ft 608 kts 95°
2026-05-06 23:07 36.22974 -93.37049 45049 ft 608 kts 95°
2026-05-06 23:08 36.22707 -93.26627 45036 ft 607 kts 96°
2026-05-06 23:08 36.22427 -93.16170 45039 ft 606 kts 96°
2026-05-06 23:09 36.22140 -93.05770 45037 ft 605 kts 96°
2026-05-06 23:09 36.21845 -92.95386 45035 ft 606 kts 96°
2026-05-06 23:10 36.21538 -92.84940 45038 ft 606 kts 96°
2026-05-06 23:10 36.21227 -92.74548 45031 ft 607 kts 96°
2026-05-06 23:11 36.20900 -92.64113 45045 ft 607 kts 95°
2026-05-06 23:11 36.20570 -92.53666 45031 ft 607 kts 95°
2026-05-06 23:12 36.20229 -92.43229 45049 ft 608 kts 95°
2026-05-06 23:12 36.19876 -92.32765 45037 ft 609 kts 97°
2026-05-06 23:13 36.19514 -92.22287 45032 ft 607 kts 96°
2026-05-06 23:13 36.19144 -92.11823 44998 ft 608 kts 97°
2026-05-06 23:14 36.18763 -92.01369 45014 ft 607 kts 97°
2026-05-06 23:14 36.18377 -91.90949 45029 ft 608 kts 96°
2026-05-06 23:15 36.17983 -91.80493 45015 ft 608 kts 97°
2026-05-06 23:15 36.17574 -91.70046 45022 ft 608 kts 96°
2026-05-06 23:16 36.17156 -91.59580 45016 ft 609 kts 96°
2026-05-06 23:16 36.16730 -91.49096 45038 ft 610 kts 96°
2026-05-06 23:17 36.16299 -91.38577 45045 ft 611 kts 96°
2026-05-06 23:17 36.15854 -91.28146 44999 ft 611 kts 96°
2026-05-06 23:18 36.15399 -91.17638 45041 ft 611 kts 96°
2026-05-06 23:18 36.14939 -91.07149 45008 ft 611 kts 96°
2026-05-06 23:19 36.14463 -90.96598 45037 ft 611 kts 97°
2026-05-06 23:19 36.14205 -90.86178 45063 ft 613 kts 92°
2026-05-06 23:20 36.14240 -90.75605 45034 ft 614 kts 93°
2026-05-06 23:20 36.14236 -90.65071 45037 ft 614 kts 92°
2026-05-06 23:21 36.14228 -90.54481 45012 ft 614 kts 93°
2026-05-06 23:21 36.14206 -90.43916 45031 ft 615 kts 92°
2026-05-06 23:22 36.14179 -90.33335 45025 ft 617 kts 92°
2026-05-06 23:22 36.14140 -90.22710 45116 ft 618 kts 93°
2026-05-06 23:22 36.14120 -90.17393 44999 ft 620 kts 93°
2026-05-06 23:23 36.14095 -90.12077 45057 ft 615 kts 93°
2026-05-06 23:23 36.14041 -90.01630 45016 ft 609 kts 93°
2026-05-06 23:24 36.13974 -89.91227 45039 ft 602 kts 92°
2026-05-06 23:24 36.13903 -89.80907 45015 ft 598 kts 92°
2026-05-06 23:24 36.13862 -89.75745 44909 ft 602 kts 94°
2026-05-06 23:25 36.13820 -89.70593 45055 ft 606 kts 93°
2026-05-06 23:25 36.13728 -89.60115 45035 ft 618 kts 93°
2026-05-06 23:26 36.13624 -89.49432 45042 ft 623 kts 92°
2026-05-06 23:26 36.13514 -89.38721 45036 ft 625 kts 93°
2026-05-06 23:27 36.13389 -89.27902 45017 ft 625 kts 94°
2026-05-06 23:27 36.13256 -89.17262 45030 ft 617 kts 93°
2026-05-06 23:28 36.13118 -89.06734 45031 ft 614 kts 94°
2026-05-06 23:28 36.12970 -88.96257 45049 ft 613 kts 93°
2026-05-06 23:29 36.12812 -88.85723 45045 ft 613 kts 93°
2026-05-06 23:29 36.12647 -88.75198 45050 ft 613 kts 94°
2026-05-06 23:30 36.12471 -88.64679 45022 ft 613 kts 94°
2026-05-06 23:30 36.12283 -88.54120 45051 ft 614 kts 94°
2026-05-06 23:31 36.12091 -88.43624 45030 ft 615 kts 94°
2026-05-06 23:31 36.11887 -88.33077 45020 ft 616 kts 95°
2026-05-06 23:32 36.11673 -88.22489 44977 ft 615 kts 94°
2026-05-06 23:32 36.11450 -88.11983 45055 ft 613 kts 94°
2026-05-06 23:33 36.11218 -88.01445 45054 ft 613 kts 95°
2026-05-06 23:33 36.10977 -87.90909 45028 ft 614 kts 94°
2026-05-06 23:34 36.10728 -87.80350 45003 ft 614 kts 95°
2026-05-06 23:34 36.10468 -87.69892 45004 ft 615 kts 94°
2026-05-06 23:35 36.10201 -87.59342 45018 ft 614 kts 95°
2026-05-06 23:35 36.10043 -87.48762 45001 ft 615 kts 87°
2026-05-06 23:36 36.10628 -87.38307 45011 ft 615 kts 87°
2026-05-06 23:36 36.11127 -87.27688 44984 ft 615 kts 89°
2026-05-06 23:37 36.11604 -87.17142 44990 ft 615 kts 88°
2026-05-06 23:37 36.12075 -87.06627 44996 ft 614 kts 88°
2026-05-06 23:38 36.12535 -86.96121 45007 ft 614 kts 89°
2026-05-06 23:38 36.12987 -86.85526 45021 ft 614 kts 88°
2026-05-06 23:39 36.13425 -86.75055 45021 ft 614 kts 88°
2026-05-06 23:39 36.13406 -86.64502 45061 ft 609 kts 98°
2026-05-06 23:40 36.12664 -86.54125 45033 ft 609 kts 98°
2026-05-06 23:40 36.11897 -86.43655 45027 ft 610 kts 98°
2026-05-06 23:41 36.11127 -86.33202 44999 ft 610 kts 98°
2026-05-06 23:41 36.10344 -86.22778 44989 ft 610 kts 99°
2026-05-06 23:42 36.09563 -86.12392 44997 ft 609 kts 99°
2026-05-06 23:42 36.08766 -86.02016 45005 ft 608 kts 99°
2026-05-06 23:43 36.07963 -85.91661 45006 ft 608 kts 98°
2026-05-06 23:43 36.07152 -85.81316 45002 ft 609 kts 98°
2026-05-06 23:44 36.06327 -85.70869 45022 ft 609 kts 98°
2026-05-06 23:44 36.05493 -85.60427 45031 ft 609 kts 98°
2026-05-06 23:45 36.04655 -85.50085 45027 ft 594 kts 97°
2026-05-06 23:45 36.03827 -85.39952 45004 ft 597 kts 98°
2026-05-06 23:46 36.02980 -85.29711 44988 ft 602 kts 99°
2026-05-06 23:46 36.02117 -85.19421 45006 ft 604 kts 99°
2026-05-06 23:47 36.01248 -85.09087 45021 ft 606 kts 99°
2026-05-06 23:47 36.00366 -84.98801 45011 ft 609 kts 98°
2026-05-06 23:48 35.99474 -84.88422 45017 ft 610 kts 97°
2026-05-06 23:48 35.98566 -84.78028 45033 ft 610 kts 98°
2026-05-06 23:49 35.97892 -84.67556 45017 ft 612 kts 85°
2026-05-06 23:49 35.98714 -84.62535 45044 ft 603 kts 65°
2026-05-06 23:49 36.00576 -84.58001 45077 ft 585 kts 46°
2026-05-06 23:50 36.05853 -84.50548 44981 ft 579 kts 38°
2026-05-06 23:50 36.14008 -84.39477 45020 ft 581 kts 38°
2026-05-06 23:51 36.19423 -84.32104 44963 ft 582 kts 39°
2026-05-06 23:51 36.24809 -84.24594 44975 ft 590 kts 48°
2026-05-06 23:52 36.26765 -84.20064 45055 ft 603 kts 67°
2026-05-06 23:52 36.27728 -84.15004 45021 ft 608 kts 81°
2026-05-06 23:52 36.29295 -84.04677 44986 ft 610 kts 76°
2026-05-06 23:53 36.31038 -83.94399 44967 ft 612 kts 75°
2026-05-06 23:53 36.32786 -83.84091 44963 ft 613 kts 76°
2026-05-06 23:54 36.34529 -83.73741 44964 ft 613 kts 75°
2026-05-06 23:54 36.36268 -83.63387 44979 ft 613 kts 75°
2026-05-06 23:55 36.37998 -83.53017 44992 ft 614 kts 76°
2026-05-06 23:55 36.39708 -83.42667 44986 ft 614 kts 75°
2026-05-06 23:56 36.41414 -83.32327 44971 ft 615 kts 76°
2026-05-06 23:56 36.43109 -83.21974 44972 ft 614 kts 75°
2026-05-06 23:57 36.44795 -83.11658 45112 ft 609 kts 77°
2026-05-06 23:57 36.45628 -83.06503 44749 ft 613 kts 76°
2026-05-06 23:57 36.46466 -83.01313 45077 ft 609 kts 76°
2026-05-06 23:58 36.48116 -82.91056 44983 ft 612 kts 76°
2026-05-06 23:58 36.49797 -82.80602 44974 ft 611 kts 77°
2026-05-06 23:59 36.51438 -82.70270 45022 ft 612 kts 76°
2026-05-06 23:59 36.53080 -82.59905 45017 ft 612 kts 75°
2026-05-07 00:00 36.54710 -82.49545 44901 ft 615 kts 76°
2026-05-07 00:00 36.55525 -82.44341 43556 ft 609 kts 76°
2026-05-07 00:00 36.56046 -82.40987 43280 ft 601 kts 76°
2026-05-07 00:01 36.57109 -82.34175 42127 ft 602 kts 76°
2026-05-07 00:01 36.57910 -82.29043 41235 ft 597 kts 77°
2026-05-07 00:01 36.58681 -82.24027 40332 ft 595 kts 75°
2026-05-07 00:01 36.59471 -82.18951 39425 ft 597 kts 77°
2026-05-07 00:02 36.60247 -82.13867 38575 ft 597 kts 76°
2026-05-07 00:02 36.61018 -82.08873 37774 ft 598 kts 76°
2026-05-07 00:02 36.61789 -82.03809 36960 ft 589 kts 79°
2026-05-07 00:02 36.62551 -81.98811 36152 ft 582 kts 78°
2026-05-07 00:03 36.63297 -81.93925 35363 ft 575 kts 78°
2026-05-07 00:03 36.64035 -81.89076 34562 ft 571 kts 78°
2026-05-07 00:03 36.64767 -81.84203 33787 ft 569 kts 81°
2026-05-07 00:03 36.65730 -81.79487 33061 ft 568 kts 71°
2026-05-07 00:04 36.66893 -81.74757 32280 ft 565 kts 72°
2026-05-07 00:04 36.67970 -81.70195 31546 ft 545 kts 73°
2026-05-07 00:04 36.69005 -81.65743 30798 ft 529 kts 73°
2026-05-07 00:04 36.70021 -81.61408 30043 ft 515 kts 73°
2026-05-07 00:05 36.70997 -81.57194 29297 ft 500 kts 72°
2026-05-07 00:05 36.71939 -81.53125 28572 ft 490 kts 72°
2026-05-07 00:05 36.72880 -81.49058 27848 ft 484 kts 72°
2026-05-07 00:05 36.73806 -81.45061 27153 ft 479 kts 72°
2026-05-07 00:06 36.74712 -81.41142 27160 ft 474 kts 72°
2026-05-07 00:06 36.75626 -81.37161 27024 ft 484 kts 73°
2026-05-07 00:06 36.76564 -81.33091 27019 ft 478 kts 74°
2026-05-07 00:06 36.77459 -81.29182 27009 ft 473 kts 72°
2026-05-07 00:07 36.78361 -81.25243 27013 ft 468 kts 72°
2026-05-07 00:07 36.79247 -81.21372 27010 ft 465 kts 73°
2026-05-07 00:07 36.80133 -81.17499 27001 ft 464 kts 73°
2026-05-07 00:07 36.81012 -81.13636 26993 ft 465 kts 72°
2026-05-07 00:08 36.81899 -81.09750 26981 ft 466 kts 73°
2026-05-07 00:08 36.82775 -81.05898 26963 ft 466 kts 72°
2026-05-07 00:08 36.83665 -81.01971 26945 ft 466 kts 73°
2026-05-07 00:08 36.84544 -80.98096 26950 ft 466 kts 73°
2026-05-07 00:09 36.85415 -80.94244 26956 ft 465 kts 73°
2026-05-07 00:09 36.86291 -80.90352 26958 ft 464 kts 73°
2026-05-07 00:09 36.87168 -80.86466 26972 ft 464 kts 73°
2026-05-07 00:09 36.88038 -80.82611 26976 ft 465 kts 73°
2026-05-07 00:10 36.88907 -80.78737 26970 ft 465 kts 73°
2026-05-07 00:10 36.89780 -80.74845 26960 ft 465 kts 73°
2026-05-07 00:10 36.90621 -80.71077 26957 ft 465 kts 73°
2026-05-07 00:10 36.91488 -80.67208 26961 ft 465 kts 73°
2026-05-07 00:11 36.92356 -80.63314 26955 ft 465 kts 72°
2026-05-07 00:11 36.93219 -80.59442 26961 ft 464 kts 72°
2026-05-07 00:11 36.94074 -80.55595 26818 ft 463 kts 72°
2026-05-07 00:11 36.94930 -80.51737 25865 ft 457 kts 73°
2026-05-07 00:12 36.95764 -80.47944 25197 ft 449 kts 73°
2026-05-07 00:12 36.96557 -80.44218 24954 ft 439 kts 73°
2026-05-07 00:12 36.97337 -80.40557 25005 ft 438 kts 72°